Simultaneous Nadir Overpasses (SNOs) Predictions

Prediction of SNOs between NOAA-20 and AQUA Satellite Orbit:

Table of predicted SNOs for the next 14.0 days since TLE Epoch: 7/24/2020
Index Date (NOAA-20) Time (NOAA-20) Lat,Lon (NOAA-20) SZA (NOAA-20 ) Date (AQUA) Time (AQUA) Lat,Lon (AQUA) SZA (AQUA ) Distance(km) Time Diff (sec)
1 07/26/2020 05:56:20 -75.53, 148.35 100.77 07/26/2020 05:57:10 -75.54, 148.44 100.84 2.86 50
2 07/26/2020 06:46:34 76.90, -39.49 77.52 07/26/2020 06:46:08 76.89, -39.57 77.56 2.17 26
3 07/28/2020 22:13:04 -75.98, -94.41 100.73 07/28/2020 22:13:30 -75.99, -94.34 100.77 2.13 26
4 07/28/2020 23:03:28 76.89, 76.24 78.14 07/28/2020 23:02:37 76.90, 76.35 78.16 2.91 51
5 07/31/2020 13:43:55 61.03,-168.79 96.05 07/31/2020 13:45:08 60.80,-167.47 95.80 75.58 73
6 07/31/2020 14:29:49 -76.38, 22.76 100.59 07/31/2020 14:29:51 -76.38, 22.80 100.60 1.09 2
7 07/31/2020 15:19:28 79.05,-156.62 75.72 07/31/2020 15:18:14 79.18,-156.99 75.79 15.82 74
8 08/03/2020 05:56:12 75.64, -31.29 80.99 08/03/2020 05:57:07 75.64, -31.25 80.93 1.26 55
9 08/03/2020 06:46:33 -76.77, 140.01 100.42 08/03/2020 06:46:11 -76.77, 140.00 100.40 0.25 22
10 08/05/2020 22:12:55 76.13, 86.12 81.08 08/05/2020 22:13:26 76.13, 86.11 81.05 0.20 31
